Flag for Norway Weather past 2 weeks in Lørenskog, Norway

Now
50 °F

Cool.


Feels Like: 50 °F
Forecast: 37 / 46 °F
Wind: 2 mph from Northeast

Location: Oslo-Blindern

Current Time: Oct 21, 2014 at 5:48:49 AM

Latest Report: Oct 21, 2014 at 4:00 AM


Visibility: N/A

Pressure: 29.54 "Hg

Humidity: 89%

Dew point: 47 °F

Location of LørenskogLocation

Historic Weather in Lørenskog — Graph

°F

Lørenskog temperature yesterday

Maximum temperature yesterday: 59 °F (at 2:00 PM)
Minimum temperature yesterday: 48 °F (at 11:00 PM)
Average temperature yesterday: 52 °F

Past Weeks' High & Low Weather Summary

 TemperatureHumidityPressure
High59 °F (Oct 20, 2:00 PM)100% (Oct 14, 8:00 AM)30.40 "Hg (Oct 14, 8:00 AM)
Low35 °F (Oct 14, 5:00 AM)58% (Oct 6, 3:00 PM)29.29 "Hg (Oct 20, 1:00 AM)
Average46 °F89%29.82 "Hg
* Reported Oct 6 4:00 AM — Oct 21 4:00 AM, Lørenskog, Weather by CustomWeather, © 2014

Note: Actual official high and low records may vary slightly from our data, if they occured in-between our weather recording intervals... More about our weather records

Advertising

Lørenskog weather history for previous 24 hours

 ConditionsComfort  
Time TempWeatherWind HumidityBarometerVisibility
4:00 AM
Oct 21
50 °FCool.2 mph89%29.54 "HgN/A
3:00 AM49 °FCool.1 mph91%29.54 "HgN/A
2:00 AM49 °FOvercast.3 mph91%29.54 "Hg22 mi
1:00 AM47 °FCool.3 mph93%29.54 "HgN/A
12:00 AM46 °FCool.1 mph95%29.54 "HgN/A
11:00 PM
Oct 20
48 °FPassing clouds.2 mph92%29.50 "Hg43 mi
10:00 PM49 °FCool.2 mph91%29.50 "HgN/A
9:00 PM48 °FCool.2 mph91%29.50 "HgN/A
8:00 PM49 °FPassing clouds.2 mph91%29.47 "Hg43 mi
7:00 PM50 °FCool.2 mph91%29.47 "HgN/A
6:00 PM53 °FCool.1 mph85%29.44 "HgN/A
5:00 PM55 °FScattered clouds.1 mph74%29.44 "Hg40 mi
4:00 PM56 °FCool.2 mph71%29.41 "HgN/A
3:00 PM58 °FCool.2 mph66%29.41 "HgN/A
2:00 PM59 °FPassing clouds.2 mph70%29.38 "Hg47 mi
1:00 PM55 °FCool.2 mph76%29.38 "HgN/A
12:00 PM54 °FCool.2 mph86%29.38 "HgN/A
11:00 AM51 °FScattered clouds.2 mph98%29.35 "Hg43 mi
10:00 AM50 °FCool.1 mph98%29.35 "HgN/A
9:00 AM50 °FCool.1 mph98%29.32 "HgN/A
8:00 AM50 °FRain. Low clouds.1 mph98%29.29 "Hg2 mi
7:00 AM50 °FCool.2 mph98%29.29 "HgN/A
5:00 AM50 °FLow clouds.2 mph98%29.29 "Hg9 mi
Weather by CustomWeather, © 2014

See weather overviewHow to use our weather pages